Time,TemperatureF,DewpointF,PressureIn,WindDirection,WindDirectionDegrees,WindSpeedMPH,WindSpeedGustMPH,Humidity,HourlyPrecipIn,Conditions,Clouds,dailyrainin,SoftwareType,DateUTC
2013-07-12 00:00:00,61.2,55.7,30.02,NE,45,0.0,0.0,82,0.00,,,0.00,WUHU21623XXSP,2013-07-12 04:00:00,
2013-07-12 00:01:00,61.2,55.7,30.02,NE,45,0.0,0.0,82,0.00,,,0.00,WUHU21623XXSP,2013-07-12 04:01:00,
2013-07-12 00:06:00,61.0,55.5,30.02,NE,45,0.0,0.0,82,0.00,,,0.00,WUHU21623XXSP,2013-07-12 04:06:00,
2013-07-12 00:11:00,61.0,55.5,30.02,NE,45,0.0,0.0,82,0.00,,,0.00,WUHU21623XXSP,2013-07-12 04:11:00,
2013-07-12 00:16:00,61.0,55.5,30.02,NE,45,0.0,0.0,82,0.00,,,0.00,WUHU21623XXSP,2013-07-12 04:16:00,
2013-07-12 00:21:00,61.0,55.8,30.02,NE,45,0.0,0.0,83,0.00,,,0.00,WUHU21623XXSP,2013-07-12 04:21:00,
2013-07-12 00:26:00,60.8,55.6,30.03,NE,45,0.0,0.0,83,0.00,,,0.00,WUHU21623XXSP,2013-07-12 04:26:00,
2013-07-12 00:31:00,61.0,55.8,30.02,NE,45,0.0,0.0,83,0.00,,,0.00,WUHU21623XXSP,2013-07-12 04:31:00,
2013-07-12 00:36:00,60.8,55.6,30.02,NE,45,0.0,0.0,83,0.00,,,0.00,WUHU21623XXSP,2013-07-12 04:36:00,
2013-07-12 00:41:00,61.0,55.8,30.02,NE,45,0.0,0.0,83,0.00,,,0.00,WUHU21623XXSP,2013-07-12 04:41:00,
2013-07-12 00:46:00,61.0,55.8,30.02,NE,45,0.0,0.0,83,0.00,,,0.00,WUHU21623XXSP,2013-07-12 04:46:00,
2013-07-12 00:51:00,60.8,55.6,30.03,NE,45,0.0,0.0,83,0.00,,,0.00,WUHU21623XXSP,2013-07-12 04:51:00,
2013-07-12 00:56:00,60.6,55.4,30.02,NE,45,0.0,0.0,83,0.00,,,0.00,WUHU21623XXSP,2013-07-12 04:56:00,
2013-07-12 01:01:00,60.6,55.4,30.03,NE,45,0.0,0.0,83,0.00,,,0.00,WUHU21623XXSP,2013-07-12 05:01:00,
2013-07-12 01:06:00,60.6,55.8,30.03,NE,45,0.0,0.0,84,0.00,,,0.00,WUHU21623XXSP,2013-07-12 05:06:00,
2013-07-12 01:11:00,60.6,55.8,30.03,NE,45,0.0,0.0,84,0.00,,,0.00,WUHU21623XXSP,2013-07-12 05:11:00,
2013-07-12 01:16:00,60.6,55.8,30.03,NE,45,0.0,0.0,84,0.00,,,0.00,WUHU21623XXSP,2013-07-12 05:16:00,
2013-07-12 01:21:00,60.6,55.8,30.02,NE,45,0.0,0.0,84,0.00,,,0.00,WUHU21623XXSP,2013-07-12 05:21:00,
2013-07-12 01:26:00,60.4,55.6,30.03,NE,45,0.0,0.0,84,0.00,,,0.00,WUHU21623XXSP,2013-07-12 05:26:00,
2013-07-12 01:31:00,60.4,55.6,30.02,NE,45,0.0,0.0,84,0.00,,,0.00,WUHU21623XXSP,2013-07-12 05:31:00,
2013-07-12 01:36:00,60.4,55.6,30.02,NE,45,0.0,0.0,84,0.00,,,0.00,WUHU21623XXSP,2013-07-12 05:36:00,
2013-07-12 01:41:00,60.4,55.6,30.02,NE,45,0.0,0.0,84,0.00,,,0.00,WUHU21623XXSP,2013-07-12 05:41:00,
2013-07-12 01:46:00,60.4,55.6,30.02,NE,45,0.0,0.0,84,0.00,,,0.00,WUHU21623XXSP,2013-07-12 05:46:00,
2013-07-12 01:51:00,60.4,55.6,30.01,NE,45,0.0,0.0,84,0.00,,,0.00,WUHU21623XXSP,2013-07-12 05:51:00,
2013-07-12 01:56:00,60.4,55.6,30.02,NE,45,0.0,0.0,84,0.00,,,0.00,WUHU21623XXSP,2013-07-12 05:56:00,
2013-07-12 02:01:00,60.4,55.6,30.02,NE,45,0.0,0.0,84,0.00,,,0.00,WUHU21623XXSP,2013-07-12 06:01:00,
2013-07-12 02:06:00,60.4,55.6,30.02,NE,45,0.0,0.0,84,0.00,,,0.00,WUHU21623XXSP,2013-07-12 06:06:00,
2013-07-12 02:11:00,60.4,55.6,30.02,NE,45,0.0,0.0,84,0.00,,,0.00,WUHU21623XXSP,2013-07-12 06:11:00,
2013-07-12 02:16:00,60.4,55.6,30.02,NE,45,0.0,0.0,84,0.00,,,0.00,WUHU21623XXSP,2013-07-12 06:16:00,
2013-07-12 02:21:00,60.4,55.6,30.02,NE,45,0.0,0.0,84,0.00,,,0.00,WUHU21623XXSP,2013-07-12 06:21:00,
2013-07-12 02:26:00,60.4,55.6,30.02,NE,45,0.0,0.0,84,0.00,,,0.00,WUHU21623XXSP,2013-07-12 06:26:00,
2013-07-12 02:31:00,60.4,55.6,30.03,NE,45,0.0,0.0,84,0.00,,,0.00,WUHU21623XXSP,2013-07-12 06:31:00,
2013-07-12 02:36:00,60.4,55.6,30.03,NE,45,0.0,0.0,84,0.00,,,0.00,WUHU21623XXSP,2013-07-12 06:36:00,
2013-07-12 02:41:00,60.4,55.6,30.03,NE,45,0.0,0.0,84,0.00,,,0.00,WUHU21623XXSP,2013-07-12 06:41:00,
2013-07-12 02:46:00,60.3,55.5,30.03,NE,45,0.0,0.0,84,0.00,,,0.00,WUHU21623XXSP,2013-07-12 06:46:00,
2013-07-12 02:51:00,60.4,55.9,30.02,NE,45,0.0,0.0,85,0.00,,,0.00,WUHU21623XXSP,2013-07-12 06:51:00,
2013-07-12 02:56:00,60.3,55.8,30.03,NE,45,0.0,0.0,85,0.00,,,0.00,WUHU21623XXSP,2013-07-12 06:56:00,
2013-07-12 03:01:00,60.1,55.6,30.03,NE,45,0.0,0.0,85,0.00,,,0.00,WUHU21623XXSP,2013-07-12 07:01:00,
2013-07-12 03:06:00,60.1,55.6,30.04,NE,45,0.0,0.0,85,0.00,,,0.00,WUHU21623XXSP,2013-07-12 07:06:00,
2013-07-12 03:11:00,60.1,55.6,30.04,NE,45,0.0,0.0,85,0.00,,,0.00,WUHU21623XXSP,2013-07-12 07:11:00,
2013-07-12 03:16:00,60.1,55.6,30.04,NE,45,0.0,0.0,85,0.00,,,0.00,WUHU21623XXSP,2013-07-12 07:16:00,
2013-07-12 03:21:00,60.1,55.6,30.04,NE,45,0.0,0.0,85,0.00,,,0.00,WUHU21623XXSP,2013-07-12 07:21:00,
2013-07-12 03:26:00,60.1,55.6,30.04,NE,45,0.0,0.0,85,0.00,,,0.00,WUHU21623XXSP,2013-07-12 07:26:00,
2013-07-12 03:31:00,60.1,55.6,30.04,NE,45,0.0,0.0,85,0.00,,,0.00,WUHU21623XXSP,2013-07-12 07:31:00,
2013-07-12 03:36:00,60.1,55.6,30.04,NE,45,0.0,0.0,85,0.00,,,0.00,WUHU21623XXSP,2013-07-12 07:36:00,
2013-07-12 03:41:00,60.1,55.6,30.04,NE,45,0.0,0.0,85,0.00,,,0.00,WUHU21623XXSP,2013-07-12 07:41:00,
2013-07-12 03:46:00,60.1,55.6,30.05,NE,45,0.0,0.0,85,0.00,,,0.00,WUHU21623XXSP,2013-07-12 07:46:00,
2013-07-12 03:51:00,60.1,55.6,30.05,NE,45,0.0,0.0,85,0.00,,,0.00,WUHU21623XXSP,2013-07-12 07:51:00,
2013-07-12 03:56:00,60.1,55.6,30.04,NE,45,0.0,0.0,85,0.00,,,0.00,WUHU21623XXSP,2013-07-12 07:56:00,
2013-07-12 04:01:00,60.1,55.6,30.04,NE,45,0.0,0.0,85,0.00,,,0.00,WUHU21623XXSP,2013-07-12 08:01:00,
2013-07-12 04:06:00,60.1,55.6,30.05,NE,45,0.0,0.0,85,0.00,,,0.00,WUHU21623XXSP,2013-07-12 08:06:00,
2013-07-12 04:11:00,59.9,55.4,30.05,NE,45,0.0,0.0,85,0.00,,,0.00,WUHU21623XXSP,2013-07-12 08:11:00,
2013-07-12 04:16:00,59.9,55.4,30.05,NE,45,0.0,0.0,85,0.00,,,0.00,WUHU21623XXSP,2013-07-12 08:16:00,
2013-07-12 04:21:00,59.7,55.2,30.05,NE,45,0.0,0.0,85,0.00,,,0.00,WUHU21623XXSP,2013-07-12 08:21:00,
2013-07-12 04:26:00,59.7,55.2,30.06,NE,45,0.0,0.0,85,0.00,,,0.00,WUHU21623XXSP,2013-07-12 08:26:00,
2013-07-12 04:31:00,59.7,55.2,30.06,NE,45,0.0,0.0,85,0.00,,,0.00,WUHU21623XXSP,2013-07-12 08:31:00,
2013-07-12 04:36:00,59.7,55.2,30.06,NE,45,0.0,0.0,85,0.00,,,0.00,WUHU21623XXSP,2013-07-12 08:36:00,
2013-07-12 04:41:00,59.7,55.2,30.06,NE,45,0.0,0.0,85,0.00,,,0.00,WUHU21623XXSP,2013-07-12 08:41:00,
2013-07-12 04:46:00,59.5,55.0,30.06,NE,45,0.0,0.0,85,0.00,,,0.00,WUHU21623XXSP,2013-07-12 08:46:00,
2013-07-12 04:51:00,59.5,55.0,30.07,NE,45,0.0,0.0,85,0.00,,,0.00,WUHU21623XXSP,2013-07-12 08:51:00,
2013-07-12 04:56:00,59.5,55.0,30.07,NE,45,0.0,0.0,85,0.00,,,0.00,WUHU21623XXSP,2013-07-12 08:56:00,
2013-07-12 05:01:00,59.5,55.0,30.07,NE,45,0.0,0.0,85,0.00,,,0.00,WUHU21623XXSP,2013-07-12 09:01:00,
2013-07-12 05:06:00,59.4,54.9,30.07,NE,45,0.0,0.0,85,0.00,,,0.00,WUHU21623XXSP,2013-07-12 09:06:00,
2013-07-12 05:11:00,59.4,55.2,30.07,NE,45,0.0,0.0,86,0.00,,,0.00,WUHU21623XXSP,2013-07-12 09:11:00,
2013-07-12 05:16:00,59.4,54.9,30.07,NE,45,0.0,0.0,85,0.00,,,0.00,WUHU21623XXSP,2013-07-12 09:16:00,
2013-07-12 05:21:00,59.4,54.9,30.07,NE,45,0.0,0.0,85,0.00,,,0.00,WUHU21623XXSP,2013-07-12 09:21:00,
2013-07-12 05:26:00,59.4,54.9,30.07,NE,45,0.0,0.0,85,0.00,,,0.00,WUHU21623XXSP,2013-07-12 09:26:00,
2013-07-12 05:31:00,59.4,55.2,30.07,NE,45,0.0,0.0,86,0.00,,,0.00,WUHU21623XXSP,2013-07-12 09:31:00,
2013-07-12 05:36:00,59.4,55.2,30.07,NE,45,0.0,0.0,86,0.00,,,0.00,WUHU21623XXSP,2013-07-12 09:36:00,
2013-07-12 05:41:00,59.4,55.2,30.07,NE,45,0.0,0.0,86,0.00,,,0.00,WUHU21623XXSP,2013-07-12 09:41:00,
2013-07-12 05:46:00,59.4,55.2,30.07,NE,45,0.0,0.0,86,0.00,,,0.00,WUHU21623XXSP,2013-07-12 09:46:00,
2013-07-12 05:51:00,59.4,55.2,30.07,NE,45,0.0,0.0,86,0.00,,,0.00,WUHU21623XXSP,2013-07-12 09:51:00,
2013-07-12 05:56:00,59.4,55.2,30.07,NE,45,0.0,0.0,86,0.00,,,0.00,WUHU21623XXSP,2013-07-12 09:56:00,
2013-07-12 06:01:00,59.5,55.3,30.07,NE,45,0.0,0.0,86,0.00,,,0.00,WUHU21623XXSP,2013-07-12 10:01:00,
2013-07-12 06:06:00,59.4,55.2,30.08,NE,45,0.0,0.0,86,0.00,,,0.00,WUHU21623XXSP,2013-07-12 10:06:00,
2013-07-12 06:11:00,59.5,55.3,30.08,NE,45,0.0,0.0,86,0.00,,,0.00,WUHU21623XXSP,2013-07-12 10:11:00,
2013-07-12 06:16:00,59.7,55.5,30.09,NE,45,0.0,0.0,86,0.00,,,0.00,WUHU21623XXSP,2013-07-12 10:16:00,
2013-07-12 06:21:00,59.7,55.5,30.09,NE,45,0.0,0.0,86,0.00,,,0.00,WUHU21623XXSP,2013-07-12 10:21:00,
2013-07-12 06:26:00,59.9,55.7,30.09,NE,45,0.0,0.0,86,0.00,,,0.00,WUHU21623XXSP,2013-07-12 10:26:00,
2013-07-12 06:31:00,60.1,55.9,30.09,NE,45,0.0,0.0,86,0.00,,,0.00,WUHU21623XXSP,2013-07-12 10:31:00,
2013-07-12 06:36:00,60.4,56.2,30.09,NE,45,0.0,0.0,86,0.00,,,0.00,WUHU21623XXSP,2013-07-12 10:36:00,
2013-07-12 06:41:00,60.4,56.2,30.09,NE,45,0.0,0.0,86,0.00,,,0.00,WUHU21623XXSP,2013-07-12 10:41:00,
2013-07-12 06:46:00,60.6,56.4,30.09,NE,45,0.0,0.0,86,0.00,,,0.00,WUHU21623XXSP,2013-07-12 10:46:00,
2013-07-12 06:51:00,60.8,56.6,30.10,NE,45,0.0,0.0,86,0.00,,,0.00,WUHU21623XXSP,2013-07-12 10:51:00,
2013-07-12 06:56:00,61.0,56.8,30.10,NE,45,0.0,0.0,86,0.00,,,0.00,WUHU21623XXSP,2013-07-12 10:56:00,
2013-07-12 07:01:00,61.2,57.0,30.09,NE,45,0.0,0.0,86,0.00,,,0.00,WUHU21623XXSP,2013-07-12 11:01:00,
2013-07-12 07:06:00,61.3,57.1,30.09,NE,45,0.0,0.0,86,0.00,,,0.00,WUHU21623XXSP,2013-07-12 11:06:00,
2013-07-12 07:11:00,61.7,57.5,30.09,NE,45,0.0,0.0,86,0.00,,,0.00,WUHU21623XXSP,2013-07-12 11:11:00,
2013-07-12 07:16:00,61.9,57.7,30.10,NE,45,0.0,0.0,86,0.00,,,0.00,WUHU21623XXSP,2013-07-12 11:16:00,
2013-07-12 07:21:00,62.2,58.0,30.10,NE,45,0.0,0.0,86,0.00,,,0.00,WUHU21623XXSP,2013-07-12 11:21:00,
2013-07-12 07:26:00,62.4,58.2,30.10,NE,45,0.0,0.0,86,0.00,,,0.00,WUHU21623XXSP,2013-07-12 11:26:00,
2013-07-12 07:31:00,63.0,58.7,30.10,NE,45,0.0,0.0,86,0.00,,,0.00,WUHU21623XXSP,2013-07-12 11:31:00,
2013-07-12 07:36:00,63.1,58.8,30.10,NE,45,0.0,0.0,86,0.00,,,0.00,WUHU21623XXSP,2013-07-12 11:36:00,
2013-07-12 07:41:00,63.3,59.0,30.10,NE,45,0.0,0.0,86,0.00,,,0.00,WUHU21623XXSP,2013-07-12 11:41:00,
2013-07-12 07:46:00,63.7,59.4,30.10,NE,45,0.0,0.0,86,0.00,,,0.00,WUHU21623XXSP,2013-07-12 11:46:00,
2013-07-12 07:51:00,64.0,59.7,30.10,NE,45,0.0,0.0,86,0.00,,,0.00,WUHU21623XXSP,2013-07-12 11:51:00,
2013-07-12 07:56:00,64.4,60.1,30.10,NE,45,0.0,0.0,86,0.00,,,0.00,WUHU21623XXSP,2013-07-12 11:56:00,
2013-07-12 08:01:00,64.8,60.2,30.10,NE,45,0.0,0.0,85,0.00,,,0.00,WUHU21623XXSP,2013-07-12 12:01:00,
2013-07-12 08:06:00,65.1,60.5,30.11,NE,45,0.0,0.0,85,0.00,,,0.00,WUHU21623XXSP,2013-07-12 12:06:00,
2013-07-12 08:11:00,65.5,60.6,30.10,NE,45,0.0,0.0,84,0.00,,,0.00,WUHU21623XXSP,2013-07-12 12:11:00,
2013-07-12 08:16:00,65.8,60.9,30.11,NE,45,0.0,0.0,84,0.00,,,0.00,WUHU21623XXSP,2013-07-12 12:16:00,
2013-07-12 08:21:00,66.0,60.7,30.11,NE,45,0.0,0.0,83,0.00,,,0.00,WUHU21623XXSP,2013-07-12 12:21:00,
2013-07-12 08:26:00,66.6,61.3,30.11,NE,45,0.0,0.0,83,0.00,,,0.00,WUHU21623XXSP,2013-07-12 12:26:00,
2013-07-12 08:31:00,66.9,61.6,30.11,NE,45,0.0,0.0,83,0.00,,,0.00,WUHU21623XXSP,2013-07-12 12:31:00,
2013-07-12 08:36:00,67.3,62.0,30.12,NE,45,0.0,0.0,83,0.00,,,0.00,WUHU21623XXSP,2013-07-12 12:36:00,
2013-07-12 08:41:00,68.0,62.4,30.12,NE,45,0.0,0.0,82,0.00,,,0.00,WUHU21623XXSP,2013-07-12 12:41:00,
2013-07-12 08:46:00,68.5,62.5,30.11,NE,45,0.0,0.0,81,0.00,,,0.00,WUHU21623XXSP,2013-07-12 12:46:00,
2013-07-12 08:51:00,69.1,62.7,30.11,NE,45,0.0,0.0,80,0.00,,,0.00,WUHU21623XXSP,2013-07-12 12:51:00,
2013-07-12 08:56:00,69.6,62.9,30.11,NNE,22,0.0,0.0,79,0.00,,,0.00,WUHU21623XXSP,2013-07-12 12:56:00,
2013-07-12 09:01:00,70.2,63.1,30.11,NE,45,0.0,0.0,78,0.00,,,0.00,WUHU21623XXSP,2013-07-12 13:01:00,
2013-07-12 09:06:00,70.7,63.3,30.11,NNE,22,0.0,0.0,77,0.00,,,0.00,WUHU21623XXSP,2013-07-12 13:06:00,
2013-07-12 09:11:00,71.2,63.4,30.12,NE,45,0.0,0.0,76,0.00,,,0.00,WUHU21623XXSP,2013-07-12 13:11:00,
2013-07-12 09:16:00,71.8,63.6,30.12,NE,45,0.0,0.0,75,0.00,,,0.00,WUHU21623XXSP,2013-07-12 13:16:00,
2013-07-12 09:21:00,72.1,63.5,30.12,NE,45,0.0,0.0,74,0.00,,,0.00,WUHU21623XXSP,2013-07-12 13:21:00,
2013-07-12 09:26:00,72.3,62.9,30.12,ENE,67,0.0,0.0,72,0.00,,,0.00,WUHU21623XXSP,2013-07-12 13:26:00,
2013-07-12 09:31:00,72.7,62.5,30.12,SSE,157,0.0,0.0,70,0.00,,,0.00,WUHU21623XXSP,2013-07-12 13:31:00,
2013-07-12 09:36:00,73.0,63.2,30.12,SSE,157,0.0,0.0,71,0.00,,,0.00,WUHU21623XXSP,2013-07-12 13:36:00,
2013-07-12 09:41:00,73.0,63.2,30.12,SSE,157,0.0,0.0,71,0.00,,,0.00,WUHU21623XXSP,2013-07-12 13:41:00,
2013-07-12 09:46:00,73.2,63.0,30.12,South,180,0.0,0.0,70,0.00,,,0.00,WUHU21623XXSP,2013-07-12 13:46:00,
2013-07-12 09:51:00,73.6,63.0,30.12,NE,45,0.0,0.0,69,0.00,,,0.00,WUHU21623XXSP,2013-07-12 13:51:00,
2013-07-12 09:56:00,73.8,62.8,30.12,ESE,112,0.0,0.0,68,0.00,,,0.00,WUHU21623XXSP,2013-07-12 13:56:00,
2013-07-12 10:01:00,74.1,63.1,30.12,ESE,112,0.0,0.0,68,0.00,,,0.00,WUHU21623XXSP,2013-07-12 14:01:00,
2013-07-12 10:06:00,74.5,63.5,30.12,East,90,0.0,0.0,68,0.00,,,0.00,WUHU21623XXSP,2013-07-12 14:06:00,
2013-07-12 10:11:00,74.8,63.3,30.12,East,90,0.0,0.0,67,0.00,,,0.00,WUHU21623XXSP,2013-07-12 14:11:00,
2013-07-12 10:16:00,75.0,63.5,30.12,NE,45,0.0,0.0,67,0.00,,,0.00,WUHU21623XXSP,2013-07-12 14:16:00,
2013-07-12 10:21:00,75.4,63.5,30.12,NNW,337,0.0,0.0,66,0.00,,,0.00,WUHU21623XXSP,2013-07-12 14:21:00,
2013-07-12 10:26:00,75.7,63.3,30.12,SE,135,0.0,0.0,65,0.00,,,0.00,WUHU21623XXSP,2013-07-12 14:26:00,
2013-07-12 10:31:00,75.9,63.1,30.12,SSE,157,0.0,0.0,64,0.00,,,0.00,WUHU21623XXSP,2013-07-12 14:31:00,
2013-07-12 10:36:00,76.3,63.5,30.12,SE,135,0.0,0.0,64,0.00,,,0.00,WUHU21623XXSP,2013-07-12 14:36:00,
2013-07-12 10:41:00,76.8,63.5,30.12,SE,135,0.0,0.0,63,0.00,,,0.00,WUHU21623XXSP,2013-07-12 14:41:00,
2013-07-12 10:46:00,77.0,64.1,30.12,NE,45,0.0,0.0,64,0.00,,,0.00,WUHU21623XXSP,2013-07-12 14:46:00,
2013-07-12 10:51:00,77.4,64.0,30.12,WNW,292,0.0,0.0,63,0.00,,,0.00,WUHU21623XXSP,2013-07-12 14:51:00,
2013-07-12 10:56:00,78.1,64.7,30.12,NNE,22,0.0,0.0,63,0.00,,,0.00,WUHU21623XXSP,2013-07-12 14:56:00,
2013-07-12 11:01:00,78.1,64.3,30.12,ENE,67,0.0,0.0,62,0.00,,,0.00,WUHU21623XXSP,2013-07-12 15:01:00,
2013-07-12 11:06:00,78.1,63.8,30.12,NE,45,0.0,0.0,61,0.00,,,0.00,WUHU21623XXSP,2013-07-12 15:06:00,
2013-07-12 11:11:00,77.9,63.1,30.12,NE,45,0.0,0.0,60,0.00,,,0.00,WUHU21623XXSP,2013-07-12 15:11:00,
2013-07-12 11:16:00,77.9,63.1,30.12,ENE,67,0.0,0.0,60,0.00,,,0.00,WUHU21623XXSP,2013-07-12 15:16:00,
2013-07-12 11:21:00,78.1,62.8,30.12,North,0,0.0,0.0,59,0.00,,,0.00,WUHU21623XXSP,2013-07-12 15:21:00,
2013-07-12 11:26:00,78.1,62.8,30.13,ENE,67,0.0,0.0,59,0.00,,,0.00,WUHU21623XXSP,2013-07-12 15:26:00,
2013-07-12 11:31:00,78.1,62.8,30.12,NE,45,0.0,0.0,59,0.00,,,0.00,WUHU21623XXSP,2013-07-12 15:31:00,
2013-07-12 11:36:00,78.4,63.1,30.12,SW,225,0.0,0.0,59,0.00,,,0.00,WUHU21623XXSP,2013-07-12 15:36:00,
2013-07-12 11:41:00,78.4,61.6,30.12,NNE,22,0.0,0.0,56,0.00,,,0.00,WUHU21623XXSP,2013-07-12 15:41:00,
2013-07-12 11:46:00,78.3,62.0,30.12,North,0,0.0,0.0,57,0.00,,,0.00,WUHU21623XXSP,2013-07-12 15:46:00,
2013-07-12 11:51:00,78.4,61.6,30.12,North,0,0.0,0.0,56,0.00,,,0.00,WUHU21623XXSP,2013-07-12 15:51:00,
2013-07-12 11:56:00,78.3,61.5,30.12,ENE,67,0.0,0.0,56,0.00,,,0.00,WUHU21623XXSP,2013-07-12 15:56:00,
2013-07-12 12:01:00,78.4,61.1,30.12,NNE,22,0.0,0.0,55,0.00,,,0.00,WUHU21623XXSP,2013-07-12 16:01:00,
2013-07-12 12:06:00,78.4,60.5,30.12,NNE,22,0.0,0.0,54,0.00,,,0.00,WUHU21623XXSP,2013-07-12 16:06:00,
2013-07-12 12:11:00,78.4,60.5,30.12,East,90,0.0,0.0,54,0.00,,,0.00,WUHU21623XXSP,2013-07-12 16:11:00,
2013-07-12 12:16:00,78.4,60.5,30.12,NNE,22,0.0,0.0,54,0.00,,,0.00,WUHU21623XXSP,2013-07-12 16:16:00,
2013-07-12 12:21:00,78.6,60.7,30.12,NE,45,0.0,0.0,54,0.00,,,0.00,WUHU21623XXSP,2013-07-12 16:21:00,
2013-07-12 12:26:00,78.6,60.7,30.12,NNE,22,0.0,0.0,54,0.00,,,0.00,WUHU21623XXSP,2013-07-12 16:26:00,
2013-07-12 12:31:00,78.6,60.7,30.12,NNW,337,0.0,0.0,54,0.00,,,0.00,WUHU21623XXSP,2013-07-12 16:31:00,
2013-07-12 12:36:00,78.6,60.7,30.12,NNE,22,0.0,0.0,54,0.00,,,0.00,WUHU21623XXSP,2013-07-12 16:36:00,
2013-07-12 12:41:00,79.0,61.6,30.12,NNE,22,0.0,0.0,55,0.00,,,0.00,WUHU21623XXSP,2013-07-12 16:41:00,
2013-07-12 12:46:00,79.0,60.6,30.12,ENE,67,0.0,0.0,53,0.00,,,0.00,WUHU21623XXSP,2013-07-12 16:46:00,
2013-07-12 12:51:00,79.2,60.7,30.12,NNE,22,0.0,0.0,53,0.00,,,0.00,WUHU21623XXSP,2013-07-12 16:51:00,
2013-07-12 12:56:00,79.5,61.0,30.12,NNE,22,0.0,0.0,53,0.00,,,0.00,WUHU21623XXSP,2013-07-12 16:56:00,
2013-07-12 13:01:00,79.5,59.9,30.12,NE,45,0.0,0.0,51,0.00,,,0.00,WUHU21623XXSP,2013-07-12 17:01:00,
2013-07-12 13:06:00,79.9,60.8,30.12,North,0,0.0,0.0,52,0.00,,,0.00,WUHU21623XXSP,2013-07-12 17:06:00,
2013-07-12 13:11:00,79.9,60.8,30.12,NE,45,0.0,0.0,52,0.00,,,0.00,WUHU21623XXSP,2013-07-12 17:11:00,
2013-07-12 13:16:00,79.9,60.3,30.12,ENE,67,0.0,2.5,51,0.00,,,0.00,WUHU21623XXSP,2013-07-12 17:16:00,
2013-07-12 13:21:00,79.7,60.1,30.12,ENE,67,0.0,2.5,51,0.00,,,0.00,WUHU21623XXSP,2013-07-12 17:21:00,
2013-07-12 13:26:00,79.9,60.3,30.12,NE,45,0.0,2.0,51,0.00,,,0.00,WUHU21623XXSP,2013-07-12 17:26:00,
2013-07-12 13:32:00,80.1,61.0,30.12,NNE,22,0.0,0.0,52,0.00,,,0.00,WUHU21623XXSP,2013-07-12 17:32:00,
2013-07-12 13:37:00,80.1,59.9,30.12,NNE,22,2.5,2.5,50,0.00,,,0.00,WUHU21623XXSP,2013-07-12 17:37:00,
2013-07-12 13:42:00,80.2,60.6,30.12,NE,45,0.0,2.5,51,0.00,,,0.00,WUHU21623XXSP,2013-07-12 17:42:00,
2013-07-12 13:47:00,80.2,60.0,30.12,NNW,337,0.0,0.0,50,0.00,,,0.00,WUHU21623XXSP,2013-07-12 17:47:00,
2013-07-12 13:52:00,79.9,59.7,30.12,NNE,22,0.0,0.0,50,0.00,,,0.00,WUHU21623XXSP,2013-07-12 17:52:00,
2013-07-12 13:57:00,79.9,59.1,30.13,NNW,332,2.3,4.7,49,0.00,,,0.00,WUHU21623XXSP,2013-07-12 17:57:00,
2013-07-12 14:02:00,79.5,59.3,30.12,NE,45,0.0,4.7,50,0.00,,,0.00,WUHU21623XXSP,2013-07-12 18:02:00,
2013-07-12 14:07:00,79.9,60.8,30.13,NE,45,0.0,0.0,52,0.00,,,0.00,WUHU21623XXSP,2013-07-12 18:07:00,
2013-07-12 14:12:00,80.4,59.0,30.13,North,0,0.0,0.0,48,0.00,,,0.00,WUHU21623XXSP,2013-07-12 18:12:00,
2013-07-12 14:17:00,80.8,60.0,30.13,ENE,67,0.0,0.0,49,0.00,,,0.00,WUHU21623XXSP,2013-07-12 18:17:00,
2013-07-12 14:22:00,81.1,59.6,30.13,NNW,337,0.0,0.0,48,0.00,,,0.00,WUHU21623XXSP,2013-07-12 18:22:00,
2013-07-12 14:28:00,81.1,60.2,30.13,North,0,0.0,0.0,49,0.00,,,0.00,WUHU21623XXSP,2013-07-12 18:28:00,
2013-07-12 14:33:00,81.1,60.2,30.13,NNE,22,0.0,0.0,49,0.00,,,0.00,WUHU21623XXSP,2013-07-12 18:33:00,
2013-07-12 14:38:00,81.0,60.1,30.13,North,0,0.0,0.0,49,0.00,,,0.00,WUHU21623XXSP,2013-07-12 18:38:00,
2013-07-12 14:43:00,81.1,59.6,30.13,North,0,0.0,0.0,48,0.00,,,0.00,WUHU21623XXSP,2013-07-12 18:43:00,
2013-07-12 14:48:00,81.1,59.6,30.13,NNE,22,0.0,0.0,48,0.00,,,0.00,WUHU21623XXSP,2013-07-12 18:48:00,
2013-07-12 14:53:00,80.8,59.4,30.13,NNE,22,0.0,0.0,48,0.00,,,0.00,WUHU21623XXSP,2013-07-12 18:53:00,
2013-07-12 14:58:00,80.4,59.6,30.13,NNE,22,0.0,0.0,49,0.00,,,0.00,WUHU21623XXSP,2013-07-12 18:58:00,
2013-07-12 15:03:00,80.4,59.0,30.13,NNW,337,2.3,3.6,48,0.00,,,0.00,WUHU21623XXSP,2013-07-12 19:03:00,
2013-07-12 15:08:00,80.2,59.4,30.13,NNE,22,0.0,3.6,49,0.00,,,0.00,WUHU21623XXSP,2013-07-12 19:08:00,
2013-07-12 15:13:00,80.8,60.0,30.12,ENE,67,0.0,0.0,49,0.00,,,0.00,WUHU21623XXSP,2013-07-12 19:13:00,
2013-07-12 15:18:00,81.0,60.1,30.13,ENE,67,0.0,0.0,49,0.00,,,0.00,WUHU21623XXSP,2013-07-12 19:18:00,
2013-07-12 15:23:00,81.0,60.1,30.13,NE,45,0.0,0.0,49,0.00,,,0.00,WUHU21623XXSP,2013-07-12 19:23:00,
2013-07-12 15:28:00,80.6,59.8,30.12,ENE,67,0.0,0.0,49,0.00,,,0.00,WUHU21623XXSP,2013-07-12 19:28:00,
2013-07-12 15:33:00,80.6,60.4,30.12,South,180,0.7,2.0,50,0.00,,,0.00,WUHU21623XXSP,2013-07-12 19:33:00,
2013-07-12 15:38:00,80.8,61.1,30.12,NE,45,0.0,2.0,51,0.00,,,0.00,WUHU21623XXSP,2013-07-12 19:38:00,
2013-07-12 15:44:00,80.8,60.5,30.12,East,90,0.0,0.7,50,0.00,,,0.00,WUHU21623XXSP,2013-07-12 19:44:00,
2013-07-12 15:49:00,80.4,60.2,30.12,NE,45,1.1,1.1,50,0.00,,,0.00,WUHU21623XXSP,2013-07-12 19:49:00,
2013-07-12 15:54:00,80.4,59.6,30.12,ENE,67,3.1,3.1,49,0.00,,,0.00,WUHU21623XXSP,2013-07-12 19:54:00,
2013-07-12 15:59:00,80.1,59.9,30.12,ENE,67,0.0,3.1,50,0.00,,,0.00,WUHU21623XXSP,2013-07-12 19:59:00,
2013-07-12 16:04:00,79.9,59.1,30.12,North,0,0.9,0.9,49,0.00,,,0.00,WUHU21623XXSP,2013-07-12 20:04:00,
2013-07-12 16:09:00,79.7,59.5,30.12,NNE,22,0.0,0.9,50,0.00,,,0.00,WUHU21623XXSP,2013-07-12 20:09:00,
2013-07-12 16:15:00,79.5,59.9,30.12,ENE,67,0.0,1.3,51,0.00,,,0.00,WUHU21623XXSP,2013-07-12 20:15:00,
2013-07-12 16:20:00,79.5,60.5,30.11,ENE,67,0.0,1.3,52,0.00,,,0.00,WUHU21623XXSP,2013-07-12 20:20:00,
2013-07-12 16:25:00,79.9,60.8,30.11,NE,45,0.0,0.0,52,0.00,,,0.00,WUHU21623XXSP,2013-07-12 20:25:00,
2013-07-12 16:30:00,79.7,60.7,30.12,NE,45,0.0,0.0,52,0.00,,,0.00,WUHU21623XXSP,2013-07-12 20:30:00,
2013-07-12 16:35:00,79.2,60.7,30.12,NE,45,0.0,0.0,53,0.00,,,0.00,WUHU21623XXSP,2013-07-12 20:35:00,
2013-07-12 16:40:00,78.6,60.2,30.11,ENE,67,0.0,0.0,53,0.00,,,0.00,WUHU21623XXSP,2013-07-12 20:40:00,
2013-07-12 16:45:00,78.6,60.7,30.11,NE,45,0.0,0.0,54,0.00,,,0.00,WUHU21623XXSP,2013-07-12 20:45:00,
2013-07-12 16:50:00,78.3,60.5,30.11,ENE,67,0.0,0.0,54,0.00,,,0.00,WUHU21623XXSP,2013-07-12 20:50:00,
2013-07-12 16:55:00,77.5,59.7,30.11,NNE,22,0.0,0.0,54,0.00,,,0.00,WUHU21623XXSP,2013-07-12 20:55:00,
2013-07-12 17:01:00,77.4,60.1,30.11,NNE,22,0.0,0.0,55,0.00,,,0.00,WUHU21623XXSP,2013-07-12 21:01:00,
2013-07-12 17:06:00,77.0,60.3,30.11,NE,45,0.0,0.0,56,0.00,,,0.00,WUHU21623XXSP,2013-07-12 21:06:00,
2013-07-12 17:11:00,76.8,60.1,30.11,NNE,22,0.0,0.0,56,0.00,,,0.00,WUHU21623XXSP,2013-07-12 21:11:00,
2013-07-12 17:16:00,76.8,59.6,30.11,North,0,0.0,0.0,55,0.00,,,0.00,WUHU21623XXSP,2013-07-12 21:16:00,
2013-07-12 17:21:00,76.8,60.1,30.11,North,0,0.0,0.0,56,0.00,,,0.00,WUHU21623XXSP,2013-07-12 21:21:00,
2013-07-12 17:26:00,77.2,60.0,30.11,NNE,27,1.8,4.0,55,0.00,,,0.00,WUHU21623XXSP,2013-07-12 21:26:00,
2013-07-12 17:32:00,77.0,60.3,30.11,North,0,0.0,4.0,56,0.00,,,0.00,WUHU21623XXSP,2013-07-12 21:32:00,
2013-07-12 17:37:00,77.0,60.3,30.11,NNE,22,0.0,0.0,56,0.00,,,0.00,WUHU21623XXSP,2013-07-12 21:37:00,
2013-07-12 17:42:00,76.8,60.6,30.11,NNE,22,0.0,0.0,57,0.00,,,0.00,WUHU21623XXSP,2013-07-12 21:42:00,
2013-07-12 17:47:00,76.6,60.9,30.11,North,0,0.0,0.0,58,0.00,,,0.00,WUHU21623XXSP,2013-07-12 21:47:00,
2013-07-12 17:52:00,76.8,61.6,30.11,North,0,0.0,0.0,59,0.00,,,0.00,WUHU21623XXSP,2013-07-12 21:52:00,
2013-07-12 17:57:00,76.6,61.4,30.11,NNW,337,0.0,0.0,59,0.00,,,0.00,WUHU21623XXSP,2013-07-12 21:57:00,
2013-07-12 18:02:00,76.6,61.4,30.11,North,0,1.8,1.8,59,0.00,,,0.00,WUHU21623XXSP,2013-07-12 22:02:00,
2013-07-12 18:07:00,76.5,61.3,30.11,North,0,0.0,1.8,59,0.00,,,0.00,WUHU21623XXSP,2013-07-12 22:07:00,
2013-07-12 18:12:00,76.1,61.4,30.11,North,352,1.7,2.2,60,0.00,,,0.00,WUHU21623XXSP,2013-07-12 22:12:00,
2013-07-12 18:18:00,75.7,60.6,30.11,North,0,0.0,2.2,59,0.00,,,0.00,WUHU21623XXSP,2013-07-12 22:18:00,
2013-07-12 18:23:00,75.4,60.8,30.11,NNE,22,0.0,1.8,60,0.00,,,0.00,WUHU21623XXSP,2013-07-12 22:23:00,
2013-07-12 18:28:00,75.2,61.0,30.12,NNE,22,0.0,0.0,61,0.00,,,0.00,WUHU21623XXSP,2013-07-12 22:28:00,
2013-07-12 18:33:00,74.8,61.1,30.11,North,0,0.0,0.0,62,0.00,,,0.00,WUHU21623XXSP,2013-07-12 22:33:00,
2013-07-12 18:38:00,74.5,60.8,30.11,NNE,22,0.0,0.0,62,0.00,,,0.00,WUHU21623XXSP,2013-07-12 22:38:00,
2013-07-12 18:43:00,74.3,60.6,30.11,NNE,22,0.0,0.0,62,0.00,,,0.00,WUHU21623XXSP,2013-07-12 22:43:00,
2013-07-12 18:49:00,73.9,60.7,30.11,NNE,22,0.0,0.0,63,0.00,,,0.00,WUHU21623XXSP,2013-07-12 22:49:00,
2013-07-12 18:54:00,73.8,60.6,30.11,NNE,22,0.0,0.0,63,0.00,,,0.00,WUHU21623XXSP,2013-07-12 22:54:00,
2013-07-12 18:59:00,73.4,60.7,30.11,NNE,22,0.0,0.0,64,0.00,,,0.00,WUHU21623XXSP,2013-07-12 22:59:00,
2013-07-12 19:04:00,73.2,60.9,30.11,NNE,22,0.0,0.0,65,0.00,,,0.00,WUHU21623XXSP,2013-07-12 23:04:00,
2013-07-12 19:09:00,73.0,60.7,30.12,NNE,22,0.0,0.0,65,0.00,,,0.00,WUHU21623XXSP,2013-07-12 23:09:00,
2013-07-12 19:14:00,72.7,60.5,30.12,NNE,22,0.0,0.0,65,0.00,,,0.00,WUHU21623XXSP,2013-07-12 23:14:00,
2013-07-12 19:19:00,72.5,60.7,30.12,NNE,22,0.0,0.0,66,0.00,,,0.00,WUHU21623XXSP,2013-07-12 23:19:00,
2013-07-12 19:24:00,72.3,60.5,30.12,North,0,0.0,0.0,66,0.00,,,0.00,WUHU21623XXSP,2013-07-12 23:24:00,
2013-07-12 19:29:00,72.1,60.7,30.12,NNE,22,0.0,0.0,67,0.00,,,0.00,WUHU21623XXSP,2013-07-12 23:29:00,
2013-07-12 19:34:00,72.0,60.6,30.12,NNE,22,0.0,0.0,67,0.00,,,0.00,WUHU21623XXSP,2013-07-12 23:34:00,
2013-07-12 19:39:00,71.8,60.9,30.11,NNE,22,0.0,0.0,68,0.00,,,0.00,WUHU21623XXSP,2013-07-12 23:39:00,
2013-07-12 19:45:00,71.4,60.5,30.12,NNE,22,0.0,0.0,68,0.00,,,0.00,WUHU21623XXSP,2013-07-12 23:45:00,
2013-07-12 19:50:00,71.4,60.9,30.12,NNE,22,0.0,0.0,69,0.00,,,0.00,WUHU21623XXSP,2013-07-12 23:50:00,
2013-07-12 19:55:00,71.2,60.7,30.12,NNE,22,0.0,0.0,69,0.00,,,0.00,WUHU21623XXSP,2013-07-12 23:55:00,
2013-07-12 20:00:00,70.9,60.4,30.12,NNE,22,0.0,0.0,69,0.00,,,0.00,WUHU21623XXSP,2013-07-13 00:00:00,
2013-07-12 20:05:00,70.9,60.8,30.12,NNE,22,0.0,0.0,70,0.00,,,0.00,WUHU21623XXSP,2013-07-13 00:05:00,
2013-07-12 20:10:00,70.7,60.6,30.12,NNE,22,0.0,0.0,70,0.00,,,0.00,WUHU21623XXSP,2013-07-13 00:10:00,
2013-07-12 20:16:00,70.3,60.2,30.12,NNE,22,0.0,0.0,70,0.00,,,0.00,WUHU21623XXSP,2013-07-13 00:16:00,
2013-07-12 20:21:00,70.2,60.1,30.12,NNE,22,0.0,0.0,70,0.00,,,0.00,WUHU21623XXSP,2013-07-13 00:21:00,
2013-07-12 20:26:00,70.0,59.9,30.12,NNE,22,0.0,0.0,70,0.00,,,0.00,WUHU21623XXSP,2013-07-13 00:26:00,
2013-07-12 20:31:00,69.6,59.9,30.12,NNE,22,0.0,0.0,71,0.00,,,0.00,WUHU21623XXSP,2013-07-13 00:31:00,
2013-07-12 20:36:00,69.6,59.9,30.13,NNE,22,0.0,0.0,71,0.00,,,0.00,WUHU21623XXSP,2013-07-13 00:36:00,
2013-07-12 20:41:00,69.3,59.7,30.13,NNE,22,0.0,0.0,71,0.00,,,0.00,WUHU21623XXSP,2013-07-13 00:41:00,
2013-07-12 20:46:00,69.1,59.9,30.12,NNE,22,0.0,0.0,72,0.00,,,0.00,WUHU21623XXSP,2013-07-13 00:46:00,
2013-07-12 20:52:00,68.7,59.5,30.13,NNE,22,0.0,0.0,72,0.00,,,0.00,WUHU21623XXSP,2013-07-13 00:52:00,
2013-07-12 20:57:00,68.4,59.6,30.13,NNE,22,0.0,0.0,73,0.00,,,0.00,WUHU21623XXSP,2013-07-13 00:57:00,
2013-07-12 21:02:00,68.2,59.4,30.13,NNE,22,0.0,0.0,73,0.00,,,0.00,WUHU21623XXSP,2013-07-13 01:02:00,
2013-07-12 21:07:00,67.8,59.0,30.13,NNE,22,0.0,0.0,73,0.00,,,0.00,WUHU21623XXSP,2013-07-13 01:07:00,
2013-07-12 21:13:00,67.6,59.2,30.13,NNE,22,0.0,0.0,74,0.00,,,0.00,WUHU21623XXSP,2013-07-13 01:13:00,
2013-07-12 21:18:00,67.3,58.9,30.13,NNE,22,0.0,0.0,74,0.00,,,0.00,WUHU21623XXSP,2013-07-13 01:18:00,
2013-07-12 21:23:00,67.1,59.0,30.13,NNE,22,0.0,0.0,75,0.00,,,0.00,WUHU21623XXSP,2013-07-13 01:23:00,
2013-07-12 21:28:00,66.9,58.8,30.13,NNE,22,0.0,0.0,75,0.00,,,0.00,WUHU21623XXSP,2013-07-13 01:28:00,
2013-07-12 21:33:00,66.7,58.6,30.14,NNE,22,0.0,0.0,75,0.00,,,0.00,WUHU21623XXSP,2013-07-13 01:33:00,
2013-07-12 21:38:00,66.4,58.4,30.14,NNE,22,0.0,0.0,75,0.00,,,0.00,WUHU21623XXSP,2013-07-13 01:38:00,
2013-07-12 21:43:00,66.0,58.0,30.14,NNE,22,0.0,0.0,75,0.00,,,0.00,WUHU21623XXSP,2013-07-13 01:43:00,
2013-07-12 21:49:00,66.0,58.3,30.14,NNE,22,0.0,0.0,76,0.00,,,0.00,WUHU21623XXSP,2013-07-13 01:49:00,
2013-07-12 21:54:00,65.8,58.1,30.14,NNE,22,0.0,0.0,76,0.00,,,0.00,WUHU21623XXSP,2013-07-13 01:54:00,
2013-07-12 21:59:00,65.5,57.8,30.15,NNE,22,0.0,0.0,76,0.00,,,0.00,WUHU21623XXSP,2013-07-13 01:59:00,
2013-07-12 22:04:00,65.3,57.7,30.15,NNE,22,0.0,0.0,76,0.00,,,0.00,WUHU21623XXSP,2013-07-13 02:04:00,
2013-07-12 22:09:00,65.1,57.5,30.15,NNE,22,0.0,0.0,76,0.00,,,0.00,WUHU21623XXSP,2013-07-13 02:09:00,
2013-07-12 22:14:00,64.9,57.3,30.15,NNE,22,0.0,0.0,76,0.00,,,0.00,WUHU21623XXSP,2013-07-13 02:14:00,
2013-07-12 22:19:00,64.8,57.5,30.16,NNE,22,0.0,0.0,77,0.00,,,0.00,WUHU21623XXSP,2013-07-13 02:19:00,
2013-07-12 22:24:00,64.6,57.3,30.16,NNE,22,0.0,0.0,77,0.00,,,0.00,WUHU21623XXSP,2013-07-13 02:24:00,
2013-07-12 22:29:00,64.4,57.5,30.16,NNE,22,0.0,0.0,78,0.00,,,0.00,WUHU21623XXSP,2013-07-13 02:29:00,
2013-07-12 22:35:00,64.2,57.3,30.16,NNE,22,0.0,0.0,78,0.00,,,0.00,WUHU21623XXSP,2013-07-13 02:35:00,
2013-07-12 22:40:00,64.0,57.1,30.16,NNE,22,0.0,0.0,78,0.00,,,0.00,WUHU21623XXSP,2013-07-13 02:40:00,
2013-07-12 22:45:00,64.0,57.4,30.16,NNE,22,0.0,0.0,79,0.00,,,0.00,WUHU21623XXSP,2013-07-13 02:45:00,
2013-07-12 22:50:00,63.7,57.1,30.16,NNE,22,0.0,0.0,79,0.00,,,0.00,WUHU21623XXSP,2013-07-13 02:50:00,
2013-07-12 22:55:00,63.7,57.5,30.17,NNE,22,0.0,0.0,80,0.00,,,0.00,WUHU21623XXSP,2013-07-13 02:55:00,
2013-07-12 23:00:00,63.5,57.3,30.16,NNE,22,0.0,0.0,80,0.00,,,0.00,WUHU21623XXSP,2013-07-13 03:00:00,
2013-07-12 23:05:00,63.3,57.1,30.16,NNE,22,0.0,0.0,80,0.00,,,0.00,WUHU21623XXSP,2013-07-13 03:05:00,
2013-07-12 23:10:00,63.3,57.1,30.16,NNE,22,0.0,0.0,80,0.00,,,0.00,WUHU21623XXSP,2013-07-13 03:10:00,
2013-07-12 23:15:00,63.1,56.9,30.16,NNE,22,0.0,0.0,80,0.00,,,0.00,WUHU21623XXSP,2013-07-13 03:15:00,
2013-07-12 23:20:00,63.1,57.2,30.16,NNE,22,0.0,0.0,81,0.00,,,0.00,WUHU21623XXSP,2013-07-13 03:20:00,
2013-07-12 23:26:00,63.0,57.1,30.16,NNE,22,0.0,0.0,81,0.00,,,0.00,WUHU21623XXSP,2013-07-13 03:26:00,
2013-07-12 23:31:00,62.8,56.9,30.17,NNE,22,0.0,0.0,81,0.00,,,0.00,WUHU21623XXSP,2013-07-13 03:31:00,
2013-07-12 23:36:00,62.8,56.9,30.17,NNE,22,0.0,0.0,81,0.00,,,0.00,WUHU21623XXSP,2013-07-13 03:36:00,
2013-07-12 23:41:00,62.8,56.9,30.17,NNE,22,0.0,0.0,81,0.00,,,0.00,WUHU21623XXSP,2013-07-13 03:41:00,
2013-07-12 23:46:00,62.6,56.7,30.17,NNE,22,0.0,0.0,81,0.00,,,0.00,WUHU21623XXSP,2013-07-13 03:46:00,
2013-07-12 23:51:00,62.4,56.5,30.17,NNE,22,0.0,0.0,81,0.00,,,0.00,WUHU21623XXSP,2013-07-13 03:51:00,
2013-07-12 23:56:00,62.4,56.5,30.17,NNE,22,0.0,0.0,81,0.00,,,0.00,WUHU21623XXSP,2013-07-13 03:56:00,